Date String (YYYY-MM-DD hh:mm:ss) UTC,Instrument flags,absolute air pressure of the measurement (hPa),sample flow rate (lpm),inlet stack bypass flow (lpm),air temperature of the measurement (°C),ambient temperature measured by the external sensor (°C),aerosol sample conditioner tube jacket temperature (°C),OPC LED temperature (°C),internal box temperature (°C),relative humidity of the measurement (%),span deviation,mass concentration of particles derived from Lorenz-Mie calculation of OPC scattering (μg/m³),mass concentration of particles derived from Lorenz-Mie calculation of OPC scattering (μg/m³),mass concentration of particles derived from Lorenz-Mie calculation of OPC scattering (μg/m³)
DateTimeUTC,F1_M11,P_M11,Q1_M11,Q2_M11,T1_M11,T2_M11,T3_M11,T4_M11,T5_M11,U1_M11,ZSPAN_M11,X0_M11,X2_M11,X1_M11
2024-06-16 02:00:00,SystemResetWarning,0823.8,5.00,000.00,029.2,028.7,000.0,037.2,031.1,017.1,0000.0,0011.14,0004.86,0004.27
2024-06-16 02:01:00,SystemResetWarning,0823.8,4.99,000.00,029.3,028.9,000.0,037.3,031.2,017.1,0000.0,0010.71,0004.91,0004.28
2024-06-16 02:02:00,SystemResetWarning,0823.8,5.00,000.00,029.3,029.0,000.0,037.3,031.2,016.9,0000.0,0010.31,0004.90,0004.29
2024-06-16 02:03:00,SystemResetWarning,0823.8,5.00,000.00,029.4,028.2,000.0,037.4,030.9,016.7,0000.0,0010.54,0004.87,0004.29
2024-06-16 02:04:00,SystemResetWarning,0823.7,5.00,000.00,029.0,026.5,000.0,037.4,030.0,017.1,0000.0,0010.79,0004.86,0004.30
2024-06-16 02:05:00,SystemResetWarning,0823.7,5.02,000.00,028.9,026.6,000.0,037.4,030.0,017.2,0000.0,0010.16,0004.86,0004.30
2024-06-16 02:06:00,SystemResetWarning,0823.7,4.99,000.00,028.9,027.0,000.0,037.4,030.3,017.1,0000.0,0010.15,0004.85,0004.29
2024-06-16 02:07:00,SystemResetWarning,0823.7,4.99,000.00,028.9,027.4,000.0,037.3,030.5,017.0,0000.0,0011.04,0004.88,0004.29
2024-06-16 02:08:00,SystemResetWarning,0823.7,5.00,000.00,029.0,027.7,000.0,037.3,030.7,016.8,0000.0,0010.67,0004.89,0004.29
2024-06-16 02:09:00,SystemResetWarning,0823.7,5.01,000.00,029.1,028.0,000.0,037.3,030.8,016.5,0000.0,0010.36,0004.92,0004.29
2024-06-16 02:10:00,SystemResetWarning,0823.8,5.01,000.00,029.1,028.3,000.0,037.3,030.9,016.5,0000.0,0011.21,0004.95,0004.29
2024-06-16 02:11:00,SystemResetWarning,0823.8,4.99,000.00,029.2,028.5,000.0,037.3,031.1,016.4,0000.0,0011.56,0004.91,0004.28
2024-06-16 02:12:00,SystemResetWarning,0823.8,4.99,000.00,029.3,028.7,000.0,037.4,031.2,016.2,0000.0,0011.55,0004.89,0004.28
2024-06-16 02:13:00,SystemResetWarning,0823.8,5.00,000.00,029.4,028.9,000.0,037.4,031.3,016.0,0000.0,0011.57,0004.91,0004.27
2024-06-16 02:14:00,SystemResetWarning,0823.8,5.02,000.00,029.5,029.0,000.0,037.4,031.3,016.1,0000.0,0011.12,0004.93,0004.26
2024-06-16 02:15:00,SystemResetWarning,0823.8,4.99,000.00,029.4,027.6,000.0,037.5,030.6,016.2,0000.0,0010.80,0004.92,0004.25
2024-06-16 02:16:00,SystemResetWarning,0823.7,5.01,000.00,028.9,025.4,000.0,037.5,029.5,016.6,0000.0,0010.87,0004.93,0004.25
2024-06-16 02:17:00,SystemResetWarning,0823.7,5.01,000.00,028.7,025.4,000.0,037.5,029.4,016.8,0000.0,0010.70,0004.92,0004.25
2024-06-16 02:18:00,SystemResetWarning,0823.8,4.99,000.00,028.6,026.0,000.0,037.4,029.7,017.0,0000.0,0009.71,0004.90,0004.24
2024-06-16 02:19:00,SystemResetWarning,0823.8,5.00,000.00,028.6,026.4,000.0,037.3,029.9,017.0,0000.0,0009.68,0004.87,0004.24
2024-06-16 02:20:00,SystemResetWarning,0823.8,5.01,000.00,028.7,026.9,000.0,037.2,030.2,017.0,0000.0,0009.78,0004.87,0004.24
2024-06-16 02:21:00,SystemResetWarning,0823.8,5.01,000.00,028.8,027.3,000.0,037.2,030.4,016.9,0000.0,0009.31,0004.86,0004.24
2024-06-16 02:22:00,SystemResetWarning,0823.8,4.99,000.00,028.8,027.7,000.0,037.2,030.6,016.7,0000.0,0008.99,0004.86,0004.26
2024-06-16 02:23:00,SystemResetWarning,0823.8,5.00,000.00,028.9,028.0,000.0,037.2,030.7,016.6,0000.0,0008.95,0004.85,0004.26
2024-06-16 02:24:00,SystemResetWarning,0823.9,4.99,000.00,029.0,028.2,000.0,037.2,030.8,016.6,0000.0,0009.70,0004.85,0004.25
2024-06-16 02:25:00,SystemResetWarning,0823.9,4.99,000.00,029.1,028.4,000.0,037.2,030.9,016.5,0000.0,0010.03,0004.86,0004.26
2024-06-16 02:26:00,SystemResetWarning,0823.9,5.00,000.00,029.2,028.6,000.0,037.2,031.1,016.6,0000.0,0010.43,0004.87,0004.27
2024-06-16 02:27:00,SystemResetWarning,0823.9,5.02,000.00,029.3,028.8,000.0,037.3,031.2,016.3,0000.5,0011.25,0004.85,0004.27
2024-06-16 02:28:00,SystemResetWarning,0823.9,5.00,000.00,029.3,028.9,000.0,037.3,031.2,016.1,0000.0,0011.23,0004.84,0004.25
2024-06-16 02:29:00,SystemResetWarning,0823.9,4.99,000.00,029.4,029.0,000.0,037.4,031.3,016.0,0000.0,0011.59,0004.81,0004.25
2024-06-16 02:30:00,SystemResetWarning,0823.8,5.00,000.00,029.5,029.1,000.0,037.4,031.4,015.8,0000.0,0012.44,0004.83,0004.25
2024-06-16 02:31:00,SystemResetWarning,0823.8,4.98,000.00,029.4,027.5,000.0,037.5,030.6,015.9,0000.0,0012.95,0004.86,0004.25
2024-06-16 02:32:00,SystemResetWarning,0823.8,5.01,000.00,028.9,025.2,000.0,037.5,029.5,016.2,0000.0,0012.65,0004.85,0004.24
2024-06-16 02:33:00,SystemResetWarning,0823.8,5.01,000.00,028.7,025.3,000.0,037.5,029.4,016.6,0000.0,0013.28,0004.85,0004.22
2024-06-16 02:34:00,SystemResetWarning,0823.8,5.00,000.00,028.6,025.8,000.0,037.4,029.6,016.8,0000.0,0013.53,0004.85,0004.20
2024-06-16 02:35:00,SystemResetWarning,0823.8,5.00,000.00,028.6,026.3,000.0,037.3,029.9,016.4,0000.0,0012.81,0004.86,0004.20
2024-06-16 02:36:00,SystemResetWarning,0823.8,5.00,000.00,028.7,026.8,000.0,037.2,030.2,016.4,0000.0,0012.66,0004.87,0004.20
2024-06-16 02:37:00,SystemResetWarning,0823.8,4.99,000.00,028.7,027.2,000.0,037.2,030.4,016.5,0000.0,0012.68,0004.84,0004.19
2024-06-16 02:38:00,SystemResetWarning,0823.8,5.01,000.00,028.8,027.6,000.0,037.1,030.5,016.3,0000.0,0011.86,0004.84,0004.18
2024-06-16 02:39:00,SystemResetWarning,0823.9,5.00,000.00,028.9,027.9,000.0,037.1,030.7,016.2,0000.0,0012.21,0004.84,0004.18
2024-06-16 02:40:00,SystemResetWarning,0824.0,5.00,000.00,028.9,028.2,000.0,037.1,030.8,016.1,0000.0,0012.03,0004.86,0004.18
2024-06-16 02:41:00,SystemResetWarning,0824.0,5.00,000.00,029.0,028.4,000.0,037.2,030.9,016.3,0000.0,0011.16,0004.86,0004.18
2024-06-16 02:42:00,SystemResetWarning,0823.9,5.00,000.00,029.1,028.6,000.0,037.2,031.0,016.0,0000.0,0010.71,0004.90,0004.19
2024-06-16 02:43:00,SystemResetWarning,0824.0,5.00,000.00,029.2,028.7,000.0,037.2,031.1,015.8,0000.0,0010.72,0004.93,0004.19
2024-06-16 02:44:00,SystemResetWarning,0824.0,5.00,000.00,029.3,028.9,000.0,037.3,031.2,015.6,0000.0,0010.18,0004.93,0004.19
2024-06-16 02:45:00,SystemResetWarning,0824.0,4.99,000.00,029.4,029.0,000.0,037.3,031.3,015.5,0000.0,0010.76,0004.94,0004.19
2024-06-16 02:46:00,SystemResetWarning,0824.0,5.00,000.00,029.5,029.1,000.0,037.4,031.3,015.6,0000.0,0010.80,0004.93,0004.19
2024-06-16 02:47:00,SystemResetWarning,0824.1,5.00,000.00,029.5,029.2,000.0,037.4,031.4,015.9,0000.0,0010.39,0004.86,0004.18
2024-06-16 02:48:00,SystemResetWarning,0823.9,4.99,000.00,029.5,027.8,000.0,037.5,030.8,016.5,0000.0,0010.82,0004.85,0004.18
2024-06-16 02:49:00,SystemResetWarning,0824.0,5.01,000.00,029.1,026.3,000.0,037.6,030.0,017.0,0000.0,0011.15,0004.88,0004.19
2024-06-16 02:50:00,SystemResetWarning,0824.0,5.02,000.00,029.0,026.5,000.0,037.5,030.1,017.6,0000.0,0011.08,0004.94,0004.21
2024-06-16 02:51:00,SystemResetWarning,0824.0,4.99,000.00,029.0,026.9,000.0,037.5,030.3,018.0,0000.0,0011.58,0005.00,0004.21
2024-06-16 02:52:00,SystemResetWarning,0824.0,5.00,000.00,029.0,027.3,000.0,037.4,030.5,018.4,0000.0,0014.14,0005.01,0004.21
2024-06-16 02:53:00,SystemResetWarning,0824.0,4.99,000.00,029.1,027.6,000.0,037.4,030.7,018.3,0000.0,0015.31,0004.99,0004.20
2024-06-16 02:54:00,SystemResetWarning,0824.1,5.00,000.00,029.1,028.0,000.0,037.4,030.8,018.6,0000.0,0015.19,0005.00,0004.21
2024-06-16 02:55:00,SystemResetWarning,0824.2,5.00,000.00,029.2,028.2,000.0,037.4,030.9,018.8,0000.0,0015.22,0004.98,0004.21
2024-06-16 02:56:00,SystemResetWarning,0824.2,5.00,000.00,029.3,028.4,000.0,037.4,031.1,018.7,0000.0,0014.77,0004.95,0004.21
2024-06-16 02:57:00,SystemResetWarning,0824.2,5.00,000.00,029.3,028.6,000.0,037.4,031.2,018.6,0000.0,0014.67,0004.94,0004.20
2024-06-16 02:58:00,SystemResetWarning,0824.1,4.99,000.00,029.4,028.8,000.0,037.5,031.3,018.6,0000.0,0015.04,0004.97,0004.21
2024-06-16 02:59:00,SystemResetWarning,0824.2,4.99,000.00,029.5,029.0,000.0,037.5,031.3,018.4,0000.0,0014.84,0005.00,0004.21
